Home > Weather > Boa Vista > Past weeks

Flag for Brazil Weather for the Past 2 Weeks in Boa Vista, Roraima, Brazil

Now
75 °F

Clear.


Feels Like: 76 °F
Forecast: 74 / 91 °F
Wind: 13 mph from East

Location: Boa Vista Aeropor-To

Current Time: Feb 8, 2016 at 2:13:46 AM

Latest Report: Feb 8, 2016 at 2:00 AM


Visibility: 10 mi

Pressure: 29.89 "Hg

Humidity: 78%

Dew point: 68 °F

Location of Boa VistaLocation

Historic Weather in Boa Vista — Graph

°F

Boa Vista Temperature Yesterday

Maximum temperature yesterday: 88 °F (at 4:00 PM)
Minimum temperature yesterday: 75 °F (at 6:00 AM)
Average temperature yesterday: 81 °F

High & Low Weather Summary for the Past Weeks

 TemperatureHumidityPressure
High93 °F (Jan 24, 3:00 PM)88% (Feb 5, 11:00 AM)30.09 "Hg (Feb 5, 11:00 AM)
Low72 °F (Feb 5, 11:00 AM)26% (Jan 29, 5:00 PM)29.74 "Hg (Feb 4, 5:00 PM)
Average83 °F52%29.88 "Hg
* Reported Jan 24 1:00 AM — Feb 8 1:00 AM, Boa Vista, Weather by CustomWeather, © 2016

Note: Actual official high and low records may vary slightly from our data, if they occured in-between our weather recording intervals... More about our weather records

Advertising

Boa Vista Weather History for the Previous 24 Hours

 ConditionsComfort  
Time TempWeatherWind HumidityBarometerVisibility
1:00 AM
Mon, Feb 8
79 °FPassing clouds.18 mph70%29.89 "HgN/A
12:00 AM79 °FPassing clouds.8 mph70%29.92 "HgN/A
11:00 PM
Sun, Feb 7
81 °FPassing clouds.7 mph66%29.92 "HgN/A
10:00 PM82 °FClear.10 mph58%29.89 "Hg10 mi
9:00 PM82 °FClear.10 mph58%29.86 "Hg10 mi
8:00 PM82 °FClear.6 mph58%29.83 "Hg10 mi
7:00 PM84 °FPassing clouds.6 mph51%29.83 "HgN/A
6:00 PM86 °FRain showers. Partly sunny.9 mph49%N/AN/A
5:00 PM86 °FScattered showers. Partly sunny.7 mph49%N/AN/A
4:00 PM88 °FScattered clouds.5 mph46%29.83 "HgN/A
3:00 PM86 °FScattered clouds.9 mph49%29.83 "HgN/A
2:00 PM84 °FBroken clouds.15 mph55%29.89 "HgN/A
1:00 PM82 °FScattered showers. Partly sunny.8 mph55%N/AN/A
12:00 PM84 °FPartly sunny.16 mph51%29.95 "HgN/A
11:00 AM82 °FScattered showers. Partly sunny.20 mph55%29.95 "HgN/A
10:00 AM82 °FBroken clouds.18 mph55%29.98 "HgN/A
9:00 AM81 °FPartly sunny.16 mph62%29.95 "HgN/A
8:00 AM77 °FPartly sunny.12 mph69%29.95 "HgN/A
7:00 AM77 °FSunny.12 mph69%29.92 "Hg10 mi
6:00 AM75 °FClear.10 mph69%29.92 "Hg10 mi
5:00 AM77 °FClear.9 mph69%29.89 "Hg10 mi
4:00 AM77 °FClear.12 mph65%29.89 "Hg10 mi
3:00 AM77 °FClear.10 mph65%29.89 "Hg10 mi
2:00 AM79 °FClear.9 mph61%29.92 "Hg10 mi
Weather by CustomWeather, © 2016

See weather overviewHow to use our weather pages